Temp
71 75 74 72 60 56 54 58 66 68 70 74 77 73 74 72 70 64 76 81 77 76 77 78 79 79 79 79 79 79 78 78 78 79 79 79 78 78 78 78 78 79 80 80 80 80 80 80 80
73 78 73 64 53 48 55 63 63 67 73 74 76 76 74 72 80 76 75 79 79 77 78 77 79 79 79 79 78 78 78 78 78 78 79 78 78 78 78 78 79 79 80 80 80 80 80 80 80
77 76 65 57 48 49 55 65 66 71 75 74 73 78 76 74 81 79 78 79 77 77 79 77 79 79 79 79 78 78 78 78 78 78 78 78 78 78 78 78 78 79 80 80 80 80 79 79 79
74 69 63 52 51 58 63 66 71 73 75 77 74 73 79 82 82 81 80 79 76 78 77 78 78 78 78 79 78 78 78 78 78 78 78 78 78 77 77 78 78 79 80 80 80 79 78 79 78
68 61 50 45 52 59 67 71 73 72 73 75 74 72 74 82 82 80 79 79 75 75 76 77 78 78 78 79 78 78 78 78 78 78 78 78 77 77 77 77 78 79 79 79 79 78 78 78 78
62 58 45 45 53 64 67 72 73 74 77 74 73 73 73 80 79 78 80 78 78 75 76 78 78 78 78 78 78 78 77 77 77 77 77 77 77 77 77 77 78 78 78 78 78 78 77 77 77
58 51 45 50 53 59 66 70 70 72 73 76 77 70 73 77 81 79 79 77 78 76 77 78 77 78 78 78 77 77 77 77 77 76 76 77 77 77 77 77 77 77 77 77 77 77 77 76 76
60 54 46 50 53 56 68 69 69 71 74 84 81 71 70 78 81 80 79 76 74 74 76 78 78 76 75 76 77 77 77 77 76 76 76 76 76 76 76 75 76 77 77 77 76 76 76 76 76
65 49 43 51 54 60 68 64 71 76 74 78 80 78 83 82 79 76 75 74 72 74 73 78 77 75 75 75 76 77 78 77 77 76 76 75 73 73 74 74 76 77 77 76 76 76 76 76 76
57 47 51 60 62 62 65 64 67 70 71 72 75 81 81 79 78 73 74 71 71 72 71 76 77 74 75 78 75 74 75 75 74 74 74 73 72 71 73 74 76 76 77 76 76 76 76 76 68
56 53 58 62 64 66 67 68 70 67 65 70 72 76 78 76 73 71 74 74 74 73 74 74 76 77 75 76 75 75 75 74 74 73 73 71 72 72 71 69 70 69 74 69 72 70 69 68 67
51 60 61 64 68 66 65 70 69 69 70 75 78 77 76 74 72 72 70 71 72 72 74 74 76 77 74 76 78 77 77 76 76 75 72 70 69 69 69 68 67 67 67 67 66 67 67 67 68
52 58 63 66 65 65 68 66 67 70 76 77 80 78 76 74 73 72 73 72 71 71 73 74 74 75 74 74 78 78 77 76 76 74 72 71 69 68 67 67 66 65 65 66 65 66 67 67 68
57 58 60 61 61 61 62 66 65 71 75 75 77 74 75 75 75 71 70 73 72 72 73 75 74 74 75 74 75 76 76 75 72 72 72 71 70 67 66 66 66 66 66 67 67 67 67 67 68
58 53 56 56 57 58 62 59 62 68 72 72 74 74 74 74 75 76 75 72 74 74 73 73 74 75 74 74 73 73 74 74 73 74 73 73 70 69 68 67 66 67 67 68 68 67 67 66 68
52 49 42 51 57 62 59 53 63 68 67 69 71 72 74 73 74 75 75 73 71 72 71 73 77 75 74 75 74 75 75 74 74 75 74 73 72 71 69 70 69 69 68 69 68 68 67 67 67
44 39 42 49 56 58 57 52 62 65 64 64 67 68 70 71 71 70 73 73 70 72 73 72 75 74 74 72 74 74 73 74 72 72 73 74 74 73 72 71 70 70 68 69 69 69 67 67 67
39 40 45 44 52 53 54 54 59 62 62 63 62 66 67 67 69 73 70 71 70 68 69 73 74 74 74 73 72 71 71 73 72 74 73 74 74 74 72 71 70 70 69 68 68 68 67 67 67
49 45 45 51 58 52 52 53 55 60 59 60 61 60 62 64 69 68 69 68 65 65 67 68 68 69 72 69 70 68 69 68 68 70 73 73 74 74 75 75 71 70 69 69 69 68 68 67 67
49 46 46 52 57 52 51 51 55 58 60 58 59 58 61 61 62 62 61 62 65 65 65 65 67 68 70 70 68 68 67 67 67 68 71 73 74 74 73 74 73 72 70 69 69 68 65 66 67
49 46 47 47 54 54 49 47 50 56 58 62 61 58 60 61 62 63 62 62 62 62 62 64 65 66 67 68 67 67 67 66 67 66 67 69 75 74 73 75 74 71 72 70 69 68 66 67 66
43 55 53 51 45 38 49 37 45 51 55 56 59 58 59 61 61 62 63 60 60 64 62 63 63 64 65 67 66 65 64 65 66 66 66 67 69 69 72 72 74 74 74 71 70 70 67 67 66
49 56 52 51 44 37 40 35 41 47 49 53 58 60 61 60 60 60 62 66 64 62 62 61 61 61 61 62 64 64 63 63 64 65 66 65 67 68 70 71 70 73 74 73 72 70 68 67 68
57 51 47 42 38 32 40 38 42 46 49 52 56 59 61 64 63 61 64 66 58 58 59 59 60 59 60 60 61 62 62 62 62 63 64 64 65 66 67 69 68 69 70 70 72 74 75 70 67
50 38 28 28 29 33 42 37 45 51 54 55 56 57 60 63 66 60 56 58 57 59 60 59 59 58 59 60 60 60 61 60 61 61 63 63 63 64 66 67 66 67 67 69 69 68 68 67 67
41 43 32 25 24 32 42 33 45 53 57 58 58 55 55 53 60 59 59 62 64 61 58 60 59 58 58 59 60 60 60 59 59 60 60 60 61 63 65 65 65 66 68 68 67 67 67 67 68
41 35 42 34 34 30 32 40 51 56 55 55 56 56 53 54 53 54 56 63 62 60 58 59 58 58 59 60 60 59 58 58 59 59 58 58 59 63 63 64 64 64 65 67 67 67 67 67 67
42 43 30 33 26 25 29 32 36 46 48 53 52 51 52 54 55 55 56 56 56 57 60 58 59 60 61 60 58 60 58 58 58 58 58 58 59 60 61 62 63 64 64 65 64 64 65 64 67
38 36 36 35 33 26 24 29 42 43 44 47 52 54 53 51 53 53 55 56 57 58 54 56 59 59 58 58 58 58 58 58 58 57 58 58 58 60 61 62 63 63 64 64 64 63 65 64 65
42 37 37 26 29 32 30 29 49 45 46 49 51 58 59 57 55 54 55 55 56 56 58 56 56 60 63 61 58 57 57 57 57 57 58 58 59 60 62 62 63 64 64 64 64 65 67 65 65
MSLP
1009.58 1008.90 1008.94 1009.05 1010.41 1010.89 1009.59 1008.64 1007.58 1006.42 1005.31 1004.41 1003.89 1003.54 1003.41 1004.12 1004.61 1005.02 1004.38 1004.41 1004.94 1006.08 1006.36 1006.97 1007.50 1007.72 1007.84 1008.28 1008.87 1009.38 1009.81 1010.18 1010.39 1010.46 1010.79 1011.19 1011.55 1011.88 1012.19 1012.41 1012.75 1013.15 1013.35 1013.61 1013.77 1013.80 1014.03 1014.24 1014.44
1009.59 1009.13 1009.19 1009.94 1011.00 1011.09 1009.44 1007.94 1007.11 1006.16 1005.13 1004.22 1003.66 1003.42 1003.58 1003.93 1003.97 1004.71 1005.21 1005.55 1005.41 1005.77 1006.64 1007.01 1007.50 1007.91 1007.93 1008.40 1008.73 1009.27 1009.93 1010.39 1010.73 1011.07 1011.28 1011.41 1011.60 1011.90 1012.19 1012.56 1012.88 1013.21 1013.42 1013.58 1013.69 1013.89 1014.09 1014.32 1014.42
1009.47 1009.76 1010.39 1010.88 1011.32 1010.63 1009.32 1007.51 1006.83 1005.76 1005.01 1004.21 1003.66 1003.30 1003.43 1003.94 1003.99 1004.40 1004.78 1005.66 1006.33 1006.51 1006.66 1007.30 1007.61 1008.17 1008.39 1008.57 1008.92 1009.32 1009.63 1010.33 1010.87 1011.29 1011.59 1011.81 1011.93 1012.12 1012.43 1012.70 1013.05 1013.34 1013.57 1013.75 1013.93 1013.93 1014.09 1014.26 1014.46
1009.92 1010.40 1011.42 1011.51 1011.13 1009.70 1008.39 1007.24 1006.44 1005.63 1004.94 1003.99 1003.82 1003.71 1003.71 1003.59 1003.64 1004.01 1004.77 1005.43 1006.43 1007.02 1006.95 1007.36 1007.66 1008.36 1008.79 1009.11 1009.31 1009.56 1009.85 1010.27 1010.73 1011.24 1011.68 1012.02 1012.27 1012.56 1012.82 1013.09 1013.24 1013.35 1013.62 1013.80 1013.95 1014.10 1014.12 1014.15 1014.40
1010.34 1011.33 1012.04 1012.09 1010.92 1009.19 1008.15 1007.28 1006.39 1005.85 1005.77 1004.79 1004.13 1004.16 1003.75 1003.65 1003.98 1004.31 1005.06 1005.61 1006.28 1006.84 1007.11 1007.37 1007.49 1008.08 1008.78 1009.27 1009.65 1009.90 1010.20 1010.68 1010.91 1011.33 1011.59 1012.06 1012.45 1012.88 1013.12 1013.22 1013.41 1013.50 1013.70 1014.02 1014.09 1014.23 1014.27 1014.16 1014.30
1011.15 1011.80 1012.68 1012.35 1010.98 1008.64 1008.06 1007.32 1006.52 1005.86 1005.81 1004.96 1004.53 1004.33 1004.13 1003.90 1004.23 1004.71 1004.95 1005.42 1006.32 1007.04 1007.51 1007.71 1008.00 1008.02 1008.63 1009.31 1009.66 1010.05 1010.27 1010.58 1011.28 1011.55 1011.86 1012.11 1012.34 1012.78 1013.18 1013.36 1013.41 1013.56 1013.69 1013.94 1014.14 1014.17 1014.22 1014.26 1014.28
1011.28 1012.10 1012.55 1011.83 1010.85 1009.06 1007.98 1007.21 1006.84 1006.13 1005.65 1005.66 1004.47 1004.44 1004.38 1004.09 1003.96 1004.56 1005.21 1005.93 1006.52 1007.19 1007.67 1008.05 1008.39 1008.51 1008.76 1009.36 1009.97 1010.01 1010.27 1010.57 1010.99 1011.68 1012.04 1012.29 1012.43 1012.64 1012.91 1013.17 1013.27 1013.33 1013.57 1013.77 1014.04 1014.26 1014.36 1014.43 1014.55
1011.06 1011.77 1012.20 1011.62 1010.97 1008.80 1007.98 1007.41 1006.94 1006.44 1005.52 1005.03 1004.73 1004.46 1004.61 1003.74 1003.92 1004.42 1005.31 1006.24 1006.67 1007.54 1007.47 1008.02 1008.27 1008.56 1008.89 1009.33 1009.86 1010.46 1010.65 1010.58 1010.73 1011.17 1011.97 1012.34 1012.45 1012.58 1012.82 1012.98 1013.11 1013.21 1013.38 1013.76 1013.99 1014.18 1014.38 1014.44 1014.53
1010.76 1011.78 1011.93 1010.85 1010.56 1008.46 1007.83 1007.54 1007.05 1006.33 1005.76 1005.71 1005.28 1004.61 1003.35 1003.36 1004.13 1004.99 1005.64 1006.59 1007.26 1007.71 1007.98 1008.09 1008.51 1008.74 1008.81 1009.27 1009.55 1010.19 1010.74 1011.31 1011.42 1011.26 1011.50 1012.04 1012.39 1012.51 1012.68 1012.83 1013.04 1013.12 1013.30 1013.63 1013.97 1014.22 1014.43 1014.38 1014.39
1010.74 1011.27 1010.72 1009.87 1009.67 1008.81 1008.05 1007.70 1007.40 1006.99 1005.97 1005.44 1005.08 1004.42 1003.82 1004.43 1004.56 1005.23 1005.78 1006.10 1006.92 1007.39 1007.76 1007.90 1008.25 1008.85 1009.04 1009.35 1009.63 1009.80 1010.39 1010.84 1011.41 1011.69 1011.88 1012.04 1012.13 1012.37 1012.64 1012.77 1012.83 1012.91 1013.10 1013.44 1013.91 1014.27 1014.43 1014.50 1014.48
1010.42 1010.12 1009.85 1009.28 1009.09 1008.68 1007.83 1007.47 1007.26 1006.64 1006.18 1005.80 1005.42 1004.91 1004.41 1004.82 1004.99 1005.18 1005.66 1005.57 1005.17 1006.37 1007.44 1007.71 1008.09 1008.48 1008.82 1009.28 1009.64 1009.89 1010.20 1010.71 1011.12 1011.49 1011.79 1012.03 1012.23 1012.24 1012.50 1012.82 1012.90 1012.95 1013.11 1013.63 1013.87 1014.10 1014.26 1014.43 1014.51
1010.31 1009.73 1009.44 1008.97 1008.69 1008.50 1007.71 1007.40 1006.89 1006.52 1005.67 1005.35 1004.88 1004.86 1004.66 1004.66 1004.95 1005.18 1005.70 1005.84 1006.08 1006.23 1006.53 1007.38 1007.65 1008.32 1008.96 1008.94 1009.39 1009.67 1009.98 1010.24 1010.70 1011.12 1011.57 1011.89 1012.12 1012.34 1012.26 1012.51 1012.64 1012.83 1013.14 1013.46 1013.85 1014.11 1014.01 1014.24 1014.42
1009.89 1009.56 1008.97 1008.29 1008.03 1007.94 1007.61 1006.98 1006.79 1005.56 1005.39 1004.90 1004.40 1004.54 1004.41 1004.55 1004.56 1004.53 1004.88 1005.43 1006.05 1006.47 1006.41 1006.93 1007.40 1008.23 1008.55 1009.08 1009.39 1009.56 1009.90 1010.26 1010.35 1010.84 1011.25 1011.58 1011.78 1012.23 1012.14 1012.24 1012.52 1012.78 1013.13 1013.50 1013.67 1013.88 1014.08 1014.00 1014.21
1009.42 1009.23 1008.84 1008.37 1007.80 1007.43 1007.35 1006.76 1006.64 1004.56 1004.99 1004.77 1004.24 1004.01 1003.73 1004.00 1004.12 1004.79 1004.92 1004.96 1005.54 1005.79 1006.21 1006.34 1006.81 1007.60 1007.73 1008.40 1008.84 1009.08 1009.42 1009.81 1010.13 1010.28 1010.54 1011.00 1011.36 1011.68 1012.23 1012.31 1012.43 1012.55 1012.61 1012.98 1013.40 1013.54 1013.92 1013.96 1013.89
1009.23 1009.19 1008.67 1008.19 1007.51 1007.19 1006.76 1006.69 1005.52 1005.13 1004.63 1004.32 1003.97 1003.90 1004.04 1003.99 1003.77 1003.97 1004.15 1004.54 1004.59 1004.72 1005.30 1005.78 1006.06 1007.05 1007.13 1007.24 1008.00 1008.55 1008.77 1009.06 1009.69 1009.74 1009.80 1010.50 1010.88 1011.15 1011.83 1012.06 1012.27 1012.21 1012.32 1012.60 1012.99 1013.28 1013.56 1013.92 1013.86
1009.78 1009.68 1009.40 1008.44 1007.96 1007.45 1007.29 1006.04 1005.36 1005.09 1004.95 1004.78 1004.28 1003.83 1003.56 1003.66 1003.57 1003.48 1003.44 1003.81 1003.85 1004.28 1005.04 1005.12 1005.61 1006.17 1006.70 1007.14 1007.71 1007.77 1008.05 1008.25 1008.57 1009.07 1009.48 1009.38 1010.15 1010.76 1011.41 1011.52 1011.74 1011.86 1012.18 1012.38 1012.96 1013.02 1013.29 1013.52 1013.71
1011.00 1010.87 1010.15 1009.14 1007.96 1007.55 1007.26 1006.19 1005.60 1004.98 1005.39 1005.09 1004.73 1004.14 1003.71 1003.34 1003.25 1003.16 1003.18 1003.06 1003.76 1003.84 1004.04 1004.71 1005.06 1005.49 1006.01 1006.46 1007.28 1007.74 1008.20 1008.69 1009.83 1009.96 1009.83 1009.40 1009.28 1009.29 1010.68 1011.07 1011.19 1011.35 1012.03 1011.86 1012.65 1013.09 1013.14 1013.31 1013.22
1011.69 1011.18 1010.19 1009.47 1008.42 1007.84 1007.40 1006.33 1006.03 1005.44 1005.08 1004.50 1004.57 1004.15 1003.84 1003.54 1002.97 1002.46 1002.56 1002.59 1003.07 1003.70 1003.80 1004.28 1004.38 1004.91 1005.52 1005.98 1006.79 1007.36 1007.96 1008.77 1008.43 1009.21 1010.15 1010.24 1009.99 1009.16 1009.68 1010.23 1010.55 1011.05 1011.63 1012.00 1012.10 1012.86 1012.86 1012.91 1012.98
1011.21 1010.90 1010.24 1009.12 1008.08 1008.12 1007.23 1006.23 1006.01 1005.36 1004.84 1004.06 1003.75 1003.93 1003.55 1003.52 1002.73 1002.55 1002.32 1002.81 1003.23 1003.58 1004.10 1004.11 1004.33 1004.82 1005.32 1005.94 1006.57 1006.97 1007.50 1008.32 1008.67 1008.58 1008.01 1009.94 1010.28 1009.78 1010.04 1009.02 1009.59 1010.39 1011.04 1011.49 1011.91 1012.32 1012.65 1012.68 1012.62
1010.55 1010.35 1009.61 1008.57 1007.82 1007.66 1006.94 1006.14 1005.57 1005.24 1004.67 1003.98 1003.61 1003.75 1003.35 1003.17 1002.74 1002.77 1002.98 1003.03 1003.09 1003.18 1003.73 1003.97 1004.20 1004.45 1004.76 1005.27 1005.78 1006.29 1006.85 1007.84 1008.56 1008.87 1008.99 1008.96 1008.97 1009.34 1009.64 1009.45 1008.44 1009.89 1010.47 1010.86 1011.59 1012.02 1012.23 1012.67 1012.41
1009.64 1009.64 1008.93 1008.43 1007.68 1007.10 1006.97 1006.23 1005.37 1004.71 1004.34 1003.77 1003.38 1003.52 1003.56 1003.26 1003.05 1002.95 1003.28 1003.36 1003.21 1003.60 1003.54 1003.64 1004.01 1004.37 1004.63 1005.03 1005.56 1006.15 1006.96 1007.65 1008.20 1008.51 1008.74 1008.51 1008.34 1008.47 1009.61 1008.35 1008.39 1008.52 1009.93 1011.20 1011.07 1011.64 1011.97 1012.19 1012.23
1009.04 1008.47 1008.37 1008.26 1008.35 1007.88 1007.25 1006.60 1005.69 1004.92 1004.52 1004.03 1003.58 1003.30 1003.15 1003.26 1003.19 1003.03 1002.93 1003.43 1003.41 1003.05 1003.10 1003.27 1003.70 1004.26 1004.58 1004.85 1005.58 1006.26 1006.56 1007.05 1007.37 1007.72 1007.93 1007.91 1008.45 1008.70 1008.57 1008.79 1008.16 1007.95 1008.42 1010.78 1009.73 1011.31 1011.62 1011.83 1011.94
1008.60 1008.31 1008.47 1008.46 1008.47 1008.23 1007.93 1007.92 1005.04 1005.01 1004.74 1004.10 1003.58 1002.99 1002.52 1002.18 1002.43 1002.64 1002.74 1002.52 1002.86 1003.08 1003.13 1003.27 1003.67 1004.12 1004.50 1004.95 1005.36 1005.95 1006.55 1006.98 1007.35 1007.50 1007.59 1007.88 1007.88 1008.07 1008.34 1008.20 1008.61 1008.55 1008.79 1007.99 1009.53 1009.69 1011.93 1011.12 1011.33
1008.61 1008.72 1008.78 1009.01 1009.26 1008.97 1007.77 1007.91 1005.42 1004.56 1003.85 1003.59 1003.23 1002.95 1002.58 1002.01 1001.53 1001.61 1001.63 1002.02 1002.64 1003.11 1003.31 1003.46 1003.83 1004.36 1004.68 1005.01 1005.40 1005.63 1006.23 1006.77 1007.14 1007.39 1007.56 1007.79 1007.94 1007.86 1008.24 1008.64 1009.09 1008.78 1008.77 1008.56 1008.98 1008.53 1008.13 1010.10 1011.02
1009.43 1010.19 1010.85 1010.38 1010.25 1008.58 1007.87 1007.70 1004.56 1003.28 1003.57 1003.27 1003.18 1002.93 1002.26 1001.56 1000.98 1000.96 1001.26 1001.68 1002.29 1003.04 1003.16 1003.38 1003.59 1004.31 1004.52 1004.81 1005.17 1005.38 1005.84 1006.41 1006.77 1006.96 1007.19 1007.38 1007.65 1007.76 1007.62 1007.86 1008.37 1008.67 1008.84 1009.02 1008.73 1008.59 1009.13 1009.82 1009.49
1010.29 1011.19 1012.31 1011.40 1011.02 1009.37 1008.42 1006.43 1002.94 1003.13 1002.89 1002.59 1002.81 1002.68 1001.97 1001.21 1000.32 1000.05 1000.15 1000.53 1001.22 1002.41 1002.97 1002.97 1003.43 1004.01 1004.37 1004.72 1004.99 1005.25 1005.76 1006.22 1006.50 1006.64 1006.80 1007.17 1007.55 1007.64 1007.65 1007.72 1008.01 1008.22 1008.41 1008.40 1008.46 1008.74 1009.12 1009.36 1008.70
1010.42 1011.36 1011.83 1011.99 1011.56 1010.52 1008.58 1005.84 1003.73 1002.95 1002.72 1002.17 1002.28 1002.25 1002.60 1002.12 1001.21 1000.90 1000.92 1000.11 1000.32 1001.68 1002.38 1002.60 1003.24 1003.83 1004.26 1004.42 1004.67 1005.12 1005.49 1006.01 1006.18 1006.28 1006.49 1006.70 1006.90 1007.24 1007.43 1007.57 1007.58 1007.98 1008.16 1008.28 1008.70 1008.77 1008.48 1008.74 1008.61
1010.74 1011.67 1012.34 1012.57 1011.95 1010.26 1008.76 1007.14 1005.57 1004.06 1003.49 1002.72 1002.77 1002.05 1002.58 1002.53 1002.16 1001.88 1001.79 1001.89 1002.25 1002.17 1002.01 1002.45 1002.77 1003.26 1003.60 1003.86 1004.36 1004.86 1005.21 1005.44 1005.66 1006.02 1006.32 1006.46 1006.51 1006.75 1006.92 1006.98 1007.24 1007.43 1007.37 1007.66 1008.37 1008.48 1008.10 1008.36 1007.90
1011.58 1012.28 1012.93 1012.96 1012.45 1011.16 1009.52 1007.36 1005.60 1005.62 1005.03 1004.31 1003.08 1002.50 1002.45 1002.57 1002.75 1002.58 1002.27 1002.44 1002.49 1002.76 1003.23 1003.06 1002.82 1003.00 1003.30 1003.67 1004.16 1004.58 1004.96 1005.22 1005.54 1005.91 1005.92 1006.01 1006.10 1006.21 1006.50 1006.57 1006.67 1006.73 1007.11 1007.42 1008.00 1007.88 1007.91 1007.79 1007.42
1011.26 1011.93 1012.50 1012.79 1012.34 1011.32 1009.96 1007.62 1005.98 1005.94 1005.05 1004.84 1004.35 1003.10 1002.39 1001.97 1002.24 1002.49 1002.59 1002.96 1003.03 1002.99 1002.93 1003.66 1003.68 1002.74 1002.67 1002.93 1003.63 1004.11 1004.58 1004.93 1005.20 1005.43 1005.46 1005.50 1005.75 1005.81 1005.97 1006.14 1006.34 1006.69 1007.04 1007.21 1007.44 1007.66 1007.48 1007.44 1007.01
Wind_Speed
8 9 0 4 5 4 4 4 3 8 7 4 7 2 8 5 2 3 5 10 18 16 15 15 17 17 19 19 20 20 20 20 20 20 20 19 18 18 17 15 14 13 13 12 12 11 10 10 10
4 6 4 3 5 2 6 5 3 4 5 7 6 4 6 3 3 4 4 4 15 17 13 13 17 16 19 19 20 21 20 19 19 19 19 18 18 17 16 15 14 13 13 12 12 10 10 9 9
5 2 3 4 4 6 4 4 5 7 8 3 2 3 3 2 2 5 5 13 12 13 15 12 17 15 17 18 19 19 20 18 17 17 16 15 15 14 14 14 13 13 12 11 10 10 9 8 7
3 5 4 4 8 7 5 5 5 14 5 8 0 4 2 1 1 7 15 18 13 13 12 16 18 15 15 16 17 17 18 18 17 16 15 14 13 12 12 11 11 11 11 10 10 8 8 8 7
3 3 1 1 7 5 3 7 8 11 4 7 0 3 4 3 4 15 14 14 14 12 11 14 20 18 16 16 17 16 17 16 16 16 16 14 12 11 10 11 10 9 9 8 8 7 6 6 5
2 4 3 5 8 9 1 4 6 5 6 3 3 4 3 2 6 7 12 14 12 11 9 12 17 19 18 16 17 17 17 17 14 14 14 14 13 12 10 10 10 9 8 7 7 6 6 5 3
5 5 6 5 5 10 2 1 6 6 11 7 5 6 3 3 9 10 8 8 10 11 12 12 10 14 18 16 15 17 18 17 17 13 13 13 13 13 12 11 10 10 9 8 7 6 5 3 1
4 5 4 5 6 14 4 1 5 6 14 8 3 5 6 6 7 11 10 8 8 8 12 15 13 11 11 12 17 15 15 18 19 18 14 14 13 13 12 11 11 10 10 8 8 7 5 4 3
4 2 5 9 8 15 9 3 1 6 6 6 5 5 10 8 7 8 11 8 8 7 7 13 14 10 11 10 13 15 16 14 15 16 18 13 6 8 9 10 11 11 10 9 8 7 6 5 5
5 4 9 4 8 10 7 4 4 7 13 8 11 5 8 8 7 12 13 13 12 12 11 13 14 9 9 9 10 10 10 8 7 7 9 6 7 6 7 9 11 11 10 9 8 6 6 5 3
5 9 4 4 5 9 14 14 6 5 11 10 13 7 5 6 6 8 12 17 21 15 11 12 13 12 11 10 8 6 5 5 5 6 6 5 5 6 4 3 3 4 7 2 3 4 3 5 3
5 5 5 9 10 10 12 10 13 6 14 10 12 7 5 9 9 8 7 8 11 15 15 14 14 13 10 6 9 8 8 8 8 10 7 5 4 5 5 5 5 4 2 4 3 3 4 5 5
5 6 9 12 12 10 12 16 13 21 15 10 15 7 11 10 10 9 11 7 7 11 13 16 14 14 11 10 9 10 10 10 10 9 7 5 5 5 4 4 4 3 3 3 4 4 4 4 4
3 4 7 7 8 7 8 13 5 18 10 15 17 11 8 10 11 4 4 12 13 10 13 16 18 16 15 13 14 12 11 10 8 9 9 9 6 4 4 4 4 4 4 4 4 4 4 4 4
3 5 7 4 4 4 6 8 15 8 10 12 10 8 8 11 7 10 14 11 11 10 14 16 17 16 16 18 14 10 10 10 9 9 11 11 8 7 6 4 4 4 4 5 4 4 2 3 2
6 4 4 4 1 6 4 15 13 7 4 9 10 9 9 9 12 11 8 9 10 9 12 12 14 16 15 13 11 11 11 10 10 9 9 14 13 9 6 6 5 4 4 3 3 3 3 3 3
6 5 5 7 4 4 6 9 7 7 6 10 11 10 10 10 8 9 10 9 10 11 12 13 14 15 16 11 8 8 6 6 2 3 6 12 13 13 9 7 5 5 4 4 3 3 3 3 3
5 5 6 5 4 1 11 17 9 10 7 13 11 13 10 10 14 12 10 9 9 8 8 12 12 13 14 8 6 3 5 5 7 7 4 7 9 12 12 7 6 5 3 4 3 5 3 3 3
5 5 11 14 15 4 11 12 9 10 8 13 10 10 10 12 10 8 7 7 7 7 8 10 10 8 9 6 6 4 5 5 3 5 9 6 7 8 11 9 7 6 6 6 4 3 3 2 2
8 12 15 11 14 6 10 15 9 7 10 8 10 9 10 6 4 2 4 6 11 12 9 8 8 8 8 6 4 3 4 3 4 4 7 13 11 9 10 9 9 8 5 6 5 5 2 2 3
10 8 13 13 6 5 2 10 6 4 5 6 6 3 5 8 8 6 5 8 8 9 10 10 9 9 7 6 5 4 4 2 4 4 4 5 9 12 12 13 7 8 5 5 6 4 6 4 3
6 9 9 9 4 7 3 12 5 5 8 6 9 8 9 10 8 7 10 8 8 11 7 9 9 9 8 8 5 4 4 5 4 4 4 5 6 7 6 7 7 8 8 7 5 4 5 4 4
7 7 8 9 5 1 2 1 9 2 7 9 9 11 11 10 10 11 11 15 13 8 11 8 8 8 7 7 7 5 4 3 3 2 2 4 4 5 7 5 4 7 8 9 13 8 8 3 4
8 6 5 5 3 3 7 7 15 9 8 5 5 8 12 15 11 10 13 14 7 7 8 8 9 7 8 8 7 8 7 5 3 4 3 3 3 3 5 5 5 4 4 4 7 12 12 13 8
10 7 6 5 4 14 8 4 19 4 6 9 9 11 14 16 17 11 11 12 10 10 12 9 9 7 7 8 8 8 7 6 6 4 4 4 2 2 5 4 5 4 5 6 5 5 7 7 10
3 5 4 8 5 8 4 10 20 4 7 8 8 7 10 13 12 13 15 17 18 14 9 10 10 8 8 8 8 6 6 4 4 4 4 4 4 3 3 5 4 4 4 4 3 4 6 7 6
4 6 3 4 6 5 6 9 14 13 7 4 8 10 13 13 9 9 4 13 18 14 11 10 9 8 9 9 7 7 6 6 6 6 3 3 3 3 5 6 4 6 6 6 6 6 8 6 6
2 3 0 2 5 6 5 5 8 12 9 8 1 10 8 11 14 12 9 9 8 1 8 8 9 11 10 9 7 7 8 7 7 5 6 6 5 4 4 4 4 5 3 4 5 6 6 6 7
2 2 1 2 4 3 3 6 3 5 5 13 7 4 5 6 7 8 8 8 6 2 4 6 10 10 8 7 8 7 7 7 5 5 5 6 4 5 5 5 5 4 5 4 5 6 8 9 10
4 5 5 3 3 3 4 7 4 6 7 14 17 8 6 4 6 4 6 6 7 5 4 6 8 8 12 12 8 8 7 6 6 7 7 6 7 5 6 6 4 5 6 6 6 9 9 11 11
Wind_Direction
320 310 324 37 58 51 261 270 234 299 340 332 303 274 131 108 254 219 331 146 134 148 155 156 156 151 138 133 131 129 129 131 132 132 131 133 133 133 133 134 131 135 140 141 141 138 133 126 119
319 321 36 76 93 103 283 222 295 264 272 307 300 357 38 30 89 102 79 117 142 145 154 156 156 153 140 137 135 134 134 135 135 135 137 138 137 137 138 134 136 144 148 150 146 139 135 129 124
329 5 72 103 130 195 218 220 275 288 300 324 189 90 60 351 7 138 126 132 133 148 155 160 152 152 144 141 139 138 136 135 134 136 137 136 136 138 136 139 143 151 156 154 149 144 138 131 118
352 13 30 104 226 258 211 299 339 326 357 342 356 38 338 205 210 155 143 139 140 158 154 160 150 149 147 144 142 141 137 139 139 141 139 138 140 137 138 144 150 157 162 158 153 147 146 134 130
36 67 70 236 259 238 270 314 308 310 334 303 11 315 345 13 60 129 142 146 152 157 157 159 154 150 152 151 149 146 142 142 143 146 145 146 143 143 148 151 155 162 159 159 158 157 150 142 134
54 94 92 224 252 258 196 313 290 305 339 268 59 119 257 100 132 158 152 154 151 150 156 161 159 152 153 158 155 153 149 144 150 151 151 152 150 151 154 157 164 167 163 166 173 172 172 164 150
139 105 208 216 257 281 219 257 307 321 324 264 207 146 246 248 197 150 149 133 137 145 156 168 165 159 154 157 162 159 154 152 152 157 158 159 157 158 164 168 173 170 173 174 183 194 191 178 162
125 113 205 215 226 263 248 269 319 322 307 330 360 196 221 228 163 156 133 128 129 149 162 170 169 162 158 161 163 166 164 162 161 159 164 166 166 167 173 178 182 181 182 185 195 199 206 202 236
120 135 219 213 208 247 304 292 136 288 273 341 253 227 228 118 99 123 125 117 121 143 166 170 173 168 159 161 168 166 170 174 172 168 166 165 173 176 183 188 194 192 191 191 203 209 218 220 249
159 190 225 183 224 269 277 249 316 326 306 300 306 300 58 69 129 138 159 155 161 169 170 177 175 167 160 168 173 164 173 172 177 179 179 175 174 175 188 199 202 201 200 197 204 221 231 244 247
200 235 209 239 238 252 274 277 268 243 278 261 273 236 181 105 95 137 169 176 177 170 171 176 175 172 168 176 172 176 169 174 179 183 182 183 183 186 188 190 209 206 215 190 202 225 226 229 241
238 239 233 262 243 249 257 268 264 233 253 245 268 219 218 146 150 158 180 173 169 172 173 172 173 175 181 174 179 180 182 182 188 194 184 177 184 201 188 197 206 195 182 193 193 227 233 244 247
204 238 248 248 251 241 257 263 262 264 263 267 275 233 200 185 169 170 179 168 161 181 172 175 168 180 176 175 182 187 193 196 192 192 187 190 189 206 194 202 191 186 159 204 209 233 242 244 258
218 242 260 270 262 249 239 258 211 257 245 255 261 250 202 199 191 143 184 178 179 173 185 175 181 183 175 179 184 189 191 194 192 188 190 192 194 178 206 196 203 204 180 191 206 225 240 239 215
275 304 323 243 257 255 179 272 242 234 221 223 244 231 197 237 234 198 182 188 187 190 174 183 183 185 184 184 182 188 190 187 198 202 187 197 194 182 191 207 218 215 200 201 199 239 249 266 254
357 50 326 282 333 264 166 261 278 214 231 255 256 252 248 209 215 228 218 182 194 170 177 181 183 187 186 192 194 191 192 192 191 199 199 187 193 188 195 203 212 189 199 196 210 216 247 246 252
356 256 261 302 216 236 196 275 270 297 207 235 246 253 254 258 244 230 235 202 180 197 176 182 185 182 188 182 184 197 199 184 251 271 227 213 197 180 193 207 200 187 214 181 195 239 192 224 251
261 296 289 282 276 209 280 274 263 274 275 268 226 230 232 237 241 248 230 213 183 188 177 180 179 182 181 169 154 162 161 194 174 177 238 247 233 194 189 194 193 180 185 209 163 216 216 209 219
233 245 258 275 277 273 261 265 263 268 294 289 276 219 225 241 254 254 237 201 153 154 169 166 155 165 161 155 168 162 173 158 190 222 190 226 243 234 232 195 174 172 190 200 190 172 200 251 165
238 258 272 275 262 207 259 267 263 248 260 256 274 217 216 229 256 323 247 179 177 167 171 156 154 154 168 165 145 132 128 167 177 204 212 195 200 219 212 222 170 190 177 176 186 180 155 234 180
261 249 265 249 265 263 272 285 287 261 260 285 294 245 275 234 227 199 226 222 167 172 172 168 165 154 150 139 117 96 74 99 161 174 209 204 217 204 236 209 186 156 157 214 179 196 183 216 202
274 276 265 265 204 254 151 274 265 241 258 293 291 281 246 231 239 237 200 219 218 192 175 159 162 156 147 143 134 171 183 170 183 174 194 207 217 236 242 248 202 179 171 197 158 215 216 155 211
250 291 278 272 224 111 240 216 273 231 268 263 271 276 281 266 212 213 209 209 206 179 179 168 152 146 138 142 148 148 165 175 178 191 165 209 224 216 267 271 255 211 191 172 188 173 225 186 202
295 331 344 19 118 238 227 175 275 240 222 242 249 272 276 274 262 228 213 202 191 157 148 153 149 155 150 137 145 144 154 176 170 205 190 227 225 198 211 230 243 261 259 218 231 218 217 202 218
29 47 321 298 258 251 152 182 246 279 230 234 278 298 291 276 263 230 186 176 155 173 170 166 151 157 157 145 150 153 163 172 190 195 189 164 236 244 246 198 203 211 229 246 226 201 210 222 202
187 174 223 267 239 269 271 230 257 144 240 230 218 6 327 326 272 212 192 180 172 176 175 158 155 150 165 163 161 159 169 177 189 195 185 195 187 215 255 248 253 261 252 253 233 225 231 254 238
186 192 83 253 221 255 235 275 299 284 278 252 91 50 15 350 14 23 281 179 163 167 179 163 154 158 169 178 168 180 182 189 200 208 193 208 206 221 235 222 215 218 206 218 217 228 235 231 234
146 138 36 222 249 218 279 276 245 299 322 282 96 76 43 12 20 32 34 35 1 316 178 170 165 168 186 185 179 189 193 196 203 187 214 217 234 222 238 260 240 250 235 210 218 242 244 242 252
139 101 277 249 242 273 303 259 240 35 354 339 348 58 73 71 27 8 23 15 21 8 352 248 186 187 185 182 190 187 198 200 193 213 235 233 238 220 225 240 256 272 266 242 226 237 256 245 253
174 182 180 169 284 301 311 272 102 47 23 359 331 316 286 138 121 72 20 360 342 334 203 256 285 204 197 195 184 197 197 193 198 212 228 219 223 245 233 217 214 230 230 238 224 237 241 241 250